Date String (YYYY-MM-DD hh:mm:ss) UTC,Instrument flags,Ambient pressure (hPa),Sample flow (lpm),Bypass flow (lpm),Sample temperature (°C),Ambient temperature (°C),ASC tube jacket temperature (°C),LED temperature (°C),Box temperature (°C),Sample RH (%),Span deviation,Mass concentration (μg/m³),Mass concentration (μg/m³),Mass concentration (μg/m³)
DateTimeUTC,F1_M11,P_M11,Q1_M11,Q2_M11,T1_M11,T2_M11,T3_M11,T4_M11,T5_M11,U1_M11,ZSPAN_M11,X0_M11,X2_M11,X1_M11
2023-04-14 10:00:00,,0819.0,4.99,0.00,27.3,25.4,00.0,35.7,28.7,14.1,0000.0,0011.37,0003.70,0002.19
2023-04-14 10:01:00,,0818.9,4.99,0.00,27.3,25.3,00.0,35.7,28.6,14.1,0000.0,0011.59,0003.70,0002.21
2023-04-14 10:02:00,,0819.0,5.00,0.00,27.2,25.3,00.0,35.7,28.6,14.2,0000.0,0011.71,0003.71,0002.22
2023-04-14 10:03:00,,0819.0,5.00,0.00,27.2,25.2,00.0,35.7,28.6,14.2,0000.0,0012.20,0003.78,0002.22
2023-04-14 10:04:00,,0819.0,5.00,0.00,27.2,25.2,00.0,35.7,28.5,14.2,0000.0,0012.65,0003.83,0002.22
2023-04-14 10:05:00,,0819.1,5.00,0.00,27.1,25.1,00.0,35.6,28.5,14.2,0000.0,0012.80,0003.85,0002.21
2023-04-14 10:06:00,,0819.3,4.99,0.00,27.1,25.1,00.0,35.6,28.5,14.3,0000.0,0012.39,0003.89,0002.20
2023-04-14 10:07:00,,0819.2,5.00,0.00,27.1,25.0,00.0,35.6,28.4,14.4,0000.0,0011.88,0003.84,0002.19
2023-04-14 10:08:00,,0819.2,5.00,0.00,27.0,25.0,00.0,35.6,28.4,14.4,0000.0,0011.72,0003.86,0002.20
2023-04-14 10:09:00,,0819.3,5.01,0.00,27.0,25.0,00.0,35.5,28.4,14.4,0000.0,0011.76,0003.91,0002.21
2023-04-14 10:10:00,,0819.3,5.00,0.00,27.0,25.0,00.0,35.5,28.3,14.4,0000.0,0011.06,0003.89,0002.23
2023-04-14 10:11:00,,0819.2,4.99,0.00,26.9,24.9,00.0,35.5,28.3,14.4,0000.0,0011.03,0003.89,0002.25
2023-04-14 10:12:00,,0819.2,5.00,0.00,26.9,24.9,00.0,35.5,28.3,14.3,0000.0,0010.83,0003.90,0002.23
2023-04-14 10:13:00,,0819.2,5.01,0.00,26.9,24.9,00.0,35.5,28.3,14.4,0000.0,0010.83,0003.90,0002.22
2023-04-14 10:14:00,,0819.2,5.01,0.00,26.9,24.9,00.0,35.4,28.3,14.4,0000.0,0010.57,0003.85,0002.23
2023-04-14 10:15:00,,0819.2,5.01,0.00,26.9,24.9,00.0,35.4,28.3,14.4,0000.0,0010.32,0003.85,0002.24
2023-04-14 10:16:00,,0819.2,5.00,0.00,26.9,24.9,00.0,35.4,28.3,14.4,0000.0,0010.36,0003.82,0002.25
2023-04-14 10:17:00,,0819.3,4.99,0.00,26.9,24.9,00.0,35.4,28.3,14.4,0000.0,0009.69,0003.78,0002.25
2023-04-14 10:18:00,,0819.3,5.00,0.00,26.8,24.9,00.0,35.4,28.3,14.4,0000.0,0010.22,0003.83,0002.26
2023-04-14 10:19:00,,0819.3,5.01,0.00,26.8,24.9,00.0,35.4,28.2,14.4,0000.0,0010.41,0003.79,0002.25
2023-04-14 10:20:00,,0819.3,5.01,0.00,26.8,24.9,00.0,35.3,28.2,14.4,0000.0,0010.32,0003.76,0002.25
2023-04-14 10:21:00,,0819.3,5.00,0.00,26.8,24.9,00.0,35.3,28.3,14.5,0000.0,0010.11,0003.78,0002.26
2023-04-14 10:22:00,,0819.3,4.99,0.00,26.8,24.9,00.0,35.3,28.3,14.5,0000.0,0010.25,0003.80,0002.26
2023-04-14 10:23:00,,0819.3,5.00,0.00,26.8,24.9,00.0,35.3,28.2,14.5,0000.0,0010.54,0003.77,0002.26
2023-04-14 10:24:00,,0819.3,5.01,0.00,26.8,24.8,00.0,35.3,28.2,14.5,0000.0,0010.91,0003.78,0002.29
2023-04-14 10:25:00,,0819.7,5.00,0.00,26.7,24.8,00.0,35.2,28.1,14.6,0000.0,0011.48,0003.78,0002.29
2023-04-14 10:26:00,,0819.5,5.00,0.00,26.7,24.7,00.0,35.2,28.1,14.6,0000.0,0011.72,0003.74,0002.29
2023-04-14 10:27:00,,0819.3,5.01,0.00,26.7,24.7,00.0,35.2,28.1,14.7,0000.0,0012.19,0003.78,0002.29
2023-04-14 10:28:00,,0819.4,4.99,0.00,26.6,24.6,00.0,35.2,28.0,14.7,0000.0,0012.16,0003.79,0002.30
2023-04-14 10:29:00,,0819.4,4.99,0.00,26.6,24.6,00.0,35.2,28.0,14.8,0000.0,0011.71,0003.80,0002.31
2023-04-14 10:30:00,,0819.5,5.00,0.00,26.6,24.6,00.0,35.1,28.0,14.8,0000.0,0011.49,0003.84,0002.34
2023-04-14 10:31:00,,0819.4,5.01,0.00,26.6,24.6,00.0,35.1,27.9,14.8,0000.0,0011.60,0003.86,0002.34
2023-04-14 10:32:00,,0819.4,5.01,0.00,26.5,24.5,00.0,35.1,28.0,14.8,0000.0,0012.76,0003.94,0002.34
2023-04-14 10:33:00,,0819.4,5.00,0.00,26.5,24.5,00.0,35.1,27.9,14.9,0000.0,0012.97,0003.93,0002.33
2023-04-14 10:34:00,,0819.5,5.01,0.00,26.5,24.4,00.0,35.1,27.9,14.9,0000.0,0012.95,0003.96,0002.34
2023-04-14 10:35:00,,0819.5,4.98,0.00,26.5,24.4,00.0,35.0,27.8,15.0,0000.0,0013.72,0003.96,0002.35
2023-04-14 10:36:00,,0819.5,5.00,0.00,26.4,24.4,00.0,35.0,27.8,15.1,0000.0,0013.85,0003.98,0002.36
2023-04-14 10:37:00,,0819.4,5.00,0.00,26.4,24.4,00.0,35.0,27.8,15.1,0000.0,0013.58,0004.02,0002.36
2023-04-14 10:38:00,,0819.5,5.01,0.00,26.4,24.3,00.0,35.0,27.8,15.1,0000.0,0013.23,0004.01,0002.34
2023-04-14 10:39:00,,0819.4,5.00,0.00,26.4,24.3,00.0,35.0,27.8,15.2,0000.0,0013.66,0004.01,0002.34
2023-04-14 10:40:00,,0819.5,5.00,0.00,26.3,24.2,00.0,34.9,27.8,15.2,0000.0,0013.86,0003.99,0002.35
2023-04-14 10:41:00,,0819.4,5.00,0.00,26.3,24.2,00.0,34.9,27.8,15.2,0000.0,0013.96,0004.01,0002.34
2023-04-14 10:42:00,,0819.5,5.00,0.00,26.3,24.2,00.0,34.9,27.7,15.2,0000.0,0013.91,0004.08,0002.32
2023-04-14 10:43:00,,0819.5,5.00,0.00,26.3,24.2,00.0,34.8,27.7,15.2,0000.0,0013.43,0004.06,0002.34
2023-04-14 10:44:00,,0819.5,5.00,0.00,26.3,24.2,00.0,34.8,27.6,15.2,0000.0,0013.55,0004.10,0002.35
2023-04-14 10:45:00,,0819.6,5.00,0.00,26.2,24.2,00.0,34.8,27.6,15.2,0000.0,0013.57,0004.15,0002.36
2023-04-14 10:46:00,,0819.7,5.01,0.00,26.2,24.2,00.0,34.8,27.6,15.3,0000.0,0012.73,0004.15,0002.34
2023-04-14 10:47:00,,0819.6,5.00,0.00,26.2,24.2,00.0,34.8,27.6,15.3,0000.0,0012.18,0004.16,0002.33
2023-04-14 10:48:00,,0819.9,4.99,0.00,26.1,24.1,00.0,34.7,27.5,15.3,0000.0,0012.30,0004.16,0002.34
2023-04-14 10:49:00,,0819.7,5.00,0.00,26.1,24.1,00.0,34.7,27.5,15.3,0000.0,0012.25,0004.17,0002.35
2023-04-14 10:50:00,,0819.7,4.99,0.00,26.1,24.1,00.0,34.7,27.5,15.4,0000.0,0012.49,0004.19,0002.36
2023-04-14 10:51:00,,0819.6,5.00,0.00,26.1,24.0,00.0,34.7,27.5,15.4,0000.0,0012.37,0004.16,0002.36
2023-04-14 10:52:00,,0819.7,5.00,0.00,26.1,24.0,00.0,34.6,27.4,15.4,0000.0,0012.57,0004.16,0002.36
2023-04-14 10:53:00,,0819.7,5.01,0.00,26.0,24.0,00.0,34.6,27.4,15.4,0000.0,0012.71,0004.13,0002.38
2023-04-14 10:54:00,,0819.7,5.00,0.00,26.0,23.9,00.0,34.6,27.4,15.4,0000.0,0012.37,0004.11,0002.36
2023-04-14 10:55:00,,0819.7,4.99,0.00,26.0,23.9,00.0,34.6,27.4,15.4,0000.0,0011.85,0004.07,0002.36
2023-04-14 10:56:00,,0819.7,4.99,0.00,26.0,23.9,00.0,34.6,27.4,15.4,0000.0,0011.63,0003.97,0002.34
2023-04-14 10:57:00,,0820.1,5.00,0.00,25.9,23.9,00.0,34.5,27.3,15.4,0000.0,0011.65,0003.97,0002.34
2023-04-14 10:58:00,,0820.0,4.99,0.00,25.9,23.9,00.0,34.5,27.3,15.5,0000.0,0011.13,0003.93,0002.35
2023-04-14 10:59:00,,0819.8,5.01,0.00,25.9,23.9,00.0,34.5,27.4,15.5,0000.0,0010.77,0003.91,0002.35
